Location: Garos
(43.5000°N, 0.4667°W)
Time: 04:26:40
(UTC+00:00)

Cosmos 1328 - Pass Details

Date: 03 February 2023
Orbit: 518 x 543 km, 82.5° (Epoch: 26 March)

Event Time Altitude Azimuth Distance (km) Brightness Sun altitude
Rises 17:45:00 0° 183° (S) 2,699 7.6 -5.9°
Reaches altitude 10° 17:47:09 10° 181° (S) 1,808 6.7 -6.2°
Maximum altitude 17:51:08 76° 97° (E) 565 3.7 -6.9°
Drops below altitude 10° 17:55:06 10° 12° (NNE) 1,809 6.2 -7.6°
Sets 17:57:15 0° 10° (N) 2,700 7.1 -8.0°
